Weather in Lisino

Russia / Omsk Oblast     56°23′54″N   75°05′37″E
temp.,
°C
wind,
m/s
gust,
m/s
humid.,
%
clouds,
%
prec.,
mm/h
press.,
hPa
HPBL,
m
17 june, thu
thu1700:00+16n228810 0.4 101038
03:00+15nw238144 0.0 101058
06:00+15nw13806 0.0 101072
09:00+21wnw24535 0.0 1010555
12:00+24w35415 0.0 10091371
15:00+26w46476 0.0 10081426
18:00+26sw36530 0.0 10061499
21:00+21s37885 0.5 1005116
18 june, fri
fri1800:00+18s3119392 0.6 1003231
03:00+17w2109121 0.0 1003279
06:00+17sse239188 0.1 100289
09:00+21ssw23675 0.0 1001528
12:00+25wsw34535 0.0 10001202
15:00+27w355255 0.0 9981726
18:00+12n71398100 8.0 999472
21:00+8n71498100 25.9 1000612
19 june, sat
sat1900:00+7n51394100 27.7 1002633
03:00+7n61290100 0.0 1002851
06:00+7n61186100 0.0 10031041
09:00+8n61182100 0.1 10041082
12:00+8n61176100 0.1 10051160
15:00+8n61370100 0.0 10051261
18:00+9n61668100 0.0 10051337
21:00+7n51493100 2.0 10051104
20 june, sun
sun2000:00+7n51397100 6.6 1004948
03:00+6n51397100 1.8 1003734
06:00+6nne41197100 2.6 1003642
09:00+6n3997100 1.1 1004533
12:00+7n3898100 1.7 1004500
15:00+7nne2699100 7.4 1005370
18:00+8ne1399100 9.9 1005183
21:00+8sse1199100 1.3 100429
21 june, mon
mon2100:00+8s1199100 1.6 100453
03:00+7wnw01100100 0.9 1003105
06:00+8se0099100 2.4 100329
09:00+8ese1298100 1.9 1003133
12:00+11nnw238797 2.1 1004567
15:00+12n3589100 1.2 1005749
18:00+13nnw357892 1.7 1006842
21:00+10nnw389540 1.3 1006244